Time,TemperatureF,DewpointF,PressureIn,WindDirection,WindDirectionDegrees,WindSpeedMPH,WindSpeedGustMPH,Humidity,HourlyPrecipIn,Conditions,Clouds,dailyrainin,SoftwareType,DateUTC
2016-07-30 00:11:00,73.0,53.0,29.98,East,95,0.0,-999.0,50,-99.99,,,-99.99,,2016-07-30 06:11:00,
2016-07-30 00:26:00,72.0,53.0,29.98,ESE,123,0.0,0.0,51,-99.99,,,-99.99,,2016-07-30 06:26:00,
2016-07-30 00:35:00,72.0,54.0,29.98,ESE,117,6.0,7.0,53,-99.99,,,-99.99,,2016-07-30 06:35:00,
2016-07-30 00:45:00,71.0,54.0,29.98,NE,49,0.0,0.0,55,-99.99,,,-99.99,,2016-07-30 06:45:00,
2016-07-30 00:54:00,70.0,54.0,29.97,NNE,25,0.0,0.0,56,-99.99,,,-99.99,,2016-07-30 06:54:00,
2016-07-30 01:05:00,70.0,55.0,29.97,NNE,25,0.0,0.0,58,-99.99,,,-99.99,,2016-07-30 07:05:00,
2016-07-30 01:14:00,70.0,55.0,29.97,NNE,25,0.0,0.0,58,-99.99,,,-99.99,,2016-07-30 07:14:00,
2016-07-30 01:28:00,69.0,54.0,29.97,NNE,25,0.0,0.0,59,-99.99,,,-99.99,,2016-07-30 07:28:00,
2016-07-30 01:35:00,69.0,55.0,29.96,NNE,25,0.0,0.0,60,-99.99,,,-99.99,,2016-07-30 07:35:00,
2016-07-30 01:44:00,69.0,54.0,29.96,NNE,25,0.0,0.0,59,-99.99,,,-99.99,,2016-07-30 07:44:00,
2016-07-30 01:53:00,70.0,54.0,29.95,NNE,24,1.0,3.0,57,-99.99,,,-99.99,,2016-07-30 07:53:00,
2016-07-30 02:04:00,71.0,55.0,29.95,NNW,339,0.0,0.0,58,-99.99,,,-99.99,,2016-07-30 08:04:00,
2016-07-30 02:13:00,71.0,55.0,29.95,North,8,0.0,0.0,58,-99.99,,,-99.99,,2016-07-30 08:13:00,
2016-07-30 02:23:00,70.0,55.0,29.94,North,8,0.0,0.0,60,-99.99,,,-99.99,,2016-07-30 08:23:00,
2016-07-30 02:34:00,69.0,56.0,29.94,North,8,0.0,0.0,64,-99.99,,,-99.99,,2016-07-30 08:34:00,
2016-07-30 02:46:00,67.0,55.0,29.93,NNE,24,0.0,0.0,65,-99.99,,,-99.99,,2016-07-30 08:46:00,
2016-07-30 02:53:00,67.0,55.0,29.93,NNE,24,0.0,0.0,65,-99.99,,,-99.99,,2016-07-30 08:53:00,
2016-07-30 03:03:00,67.0,56.0,29.93,NNE,24,0.0,0.0,67,-99.99,,,-99.99,,2016-07-30 09:03:00,
2016-07-30 03:13:00,66.0,55.0,29.93,North,11,0.0,0.0,67,-99.99,,,-99.99,,2016-07-30 09:13:00,
2016-07-30 03:23:00,66.0,55.0,29.93,North,11,0.0,0.0,67,-99.99,,,-99.99,,2016-07-30 09:23:00,
2016-07-30 03:40:00,66.0,54.0,29.93,NE,34,0.0,-999.0,66,-99.99,,,-99.99,,2016-07-30 09:40:00,
2016-07-30 04:10:00,65.0,55.0,29.93,SW,219,0.0,-999.0,71,-99.99,,,-99.99,,2016-07-30 10:10:00,
2016-07-30 04:20:00,64.0,55.0,29.92,SW,219,0.0,-999.0,72,-99.99,,,-99.99,,2016-07-30 10:20:00,
2016-07-30 04:32:00,66.0,56.0,29.92,NE,56,0.0,-999.0,69,-99.99,,,-99.99,,2016-07-30 10:32:00,
2016-07-30 04:40:00,65.0,56.0,29.92,WSW,243,4.0,-999.0,72,-99.99,,,-99.99,,2016-07-30 10:40:00,
2016-07-30 05:01:00,64.0,56.0,29.93,SSW,204,3.0,-999.0,75,-99.99,,,-99.99,,2016-07-30 11:01:00,
2016-07-30 05:11:00,63.0,56.0,29.92,WNW,294,4.0,-999.0,77,-99.99,,,-99.99,,2016-07-30 11:11:00,
2016-07-30 05:21:00,63.0,56.0,29.92,NW,310,3.0,-999.0,78,-99.99,,,-99.99,,2016-07-30 11:21:00,
2016-07-30 05:42:00,63.0,56.0,29.91,NW,314,3.0,-999.0,78,-99.99,,,-99.99,,2016-07-30 11:42:00,
2016-07-30 06:06:00,62.0,56.0,29.91,South,185,0.0,-999.0,80,-99.99,,,-99.99,,2016-07-30 12:06:00,
2016-07-30 06:13:00,62.0,56.0,29.91,SSE,152,2.0,3.0,82,-99.99,,,-99.99,,2016-07-30 12:13:00,
2016-07-30 06:35:00,61.0,56.0,29.91,SSW,196,0.0,0.0,83,-99.99,,,-99.99,,2016-07-30 12:35:00,
2016-07-30 06:47:00,61.0,56.0,29.91,SSW,196,0.0,0.0,83,-99.99,,,-99.99,,2016-07-30 12:47:00,
2016-07-30 07:09:00,62.0,57.0,29.91,SSE,166,1.0,1.0,83,-99.99,,,-99.99,,2016-07-30 13:09:00,
2016-07-30 07:14:00,62.0,57.0,29.91,SW,227,2.0,4.0,84,-99.99,,,-99.99,,2016-07-30 13:14:00,
2016-07-30 07:34:00,63.0,57.0,29.91,SW,232,2.0,2.0,82,-99.99,,,-99.99,,2016-07-30 13:34:00,
2016-07-30 07:45:00,64.0,57.0,29.91,ESE,102,0.0,0.0,78,-99.99,,,-99.99,,2016-07-30 13:45:00,
2016-07-30 08:03:00,65.0,56.0,29.91,West,279,3.0,7.0,72,-99.99,,,-99.99,,2016-07-30 14:03:00,
2016-07-30 08:14:00,66.0,57.0,29.90,East,88,1.0,4.0,72,-99.99,,,-99.99,,2016-07-30 14:14:00,
2016-07-30 08:33:00,65.0,58.0,29.90,SSW,207,3.0,3.0,78,-99.99,,,-99.99,,2016-07-30 14:33:00,
2016-07-30 08:44:00,65.0,58.0,29.90,West,265,0.0,0.0,77,-99.99,,,-99.99,,2016-07-30 14:44:00,
2016-07-30 09:03:00,69.0,58.0,29.90,North,4,0.0,0.0,68,-99.99,,,-99.99,,2016-07-30 15:03:00,
2016-07-30 09:13:00,70.0,58.0,29.90,NNE,32,0.0,0.0,65,-99.99,,,-99.99,,2016-07-30 15:13:00,
2016-07-30 09:40:00,72.0,57.0,29.89,NE,38,3.0,-999.0,60,-99.99,,,-99.99,,2016-07-30 15:40:00,
2016-07-30 10:20:00,75.0,56.0,29.88,NNE,20,0.0,-999.0,52,-99.99,,,-99.99,,2016-07-30 16:20:00,
2016-07-30 10:33:00,76.0,56.0,29.88,North,6,-999.9,-999.0,50,-99.99,,,-99.99,,2016-07-30 16:33:00,
2016-07-30 11:21:00,81.0,56.0,29.87,WSW,250,2.0,-999.0,42,-99.99,,,-99.99,,2016-07-30 17:21:00,
2016-07-30 11:43:00,82.0,53.0,29.85,NE,35,5.0,-999.0,37,-99.99,,,-99.99,,2016-07-30 17:43:00,
2016-07-30 11:51:00,82.0,55.0,29.85,NNE,27,2.0,-999.0,39,-99.99,,,-99.99,,2016-07-30 17:51:00,
2016-07-30 12:05:00,82.0,55.0,29.85,NNE,20,5.0,-999.0,39,-99.99,,,-99.99,,2016-07-30 18:05:00,
2016-07-30 12:11:00,83.0,55.0,29.85,North,359,0.0,-999.0,38,-99.99,,,-99.99,,2016-07-30 18:11:00,
2016-07-30 12:21:00,84.0,54.0,29.84,ENE,58,3.0,-999.0,36,-99.99,,,-99.99,,2016-07-30 18:21:00,
2016-07-30 12:27:00,84.0,55.0,29.85,North,4,1.0,0.0,37,-99.99,,,-99.99,,2016-07-30 18:27:00,
2016-07-30 12:35:00,85.0,53.0,29.84,NNE,32,4.0,5.0,34,-99.99,,,-99.99,,2016-07-30 18:35:00,
2016-07-30 12:45:00,85.0,53.0,29.83,NE,41,1.0,3.0,33,-99.99,,,-99.99,,2016-07-30 18:45:00,
2016-07-30 12:54:00,86.0,54.0,29.84,NNE,30,3.0,4.0,33,-99.99,,,-99.99,,2016-07-30 18:54:00,
2016-07-30 13:15:00,87.0,54.0,29.83,NE,50,2.0,4.0,33,-99.99,,,-99.99,,2016-07-30 19:15:00,
2016-07-30 13:25:00,87.0,53.0,29.83,NNE,21,0.0,0.0,31,-99.99,,,-99.99,,2016-07-30 19:25:00,
2016-07-30 13:46:00,89.0,54.0,29.81,SE,132,3.0,-999.0,30,-99.99,,,-99.99,,2016-07-30 19:46:00,
2016-07-30 13:54:00,89.0,54.0,29.81,SSE,158,2.0,2.0,31,-99.99,,,-99.99,,2016-07-30 19:54:00,
2016-07-30 14:04:00,90.0,54.0,29.80,SE,126,0.0,1.0,30,-99.99,,,-99.99,,2016-07-30 20:04:00,
2016-07-30 14:13:00,91.0,53.0,29.80,SSW,197,2.0,2.0,28,-99.99,,,-99.99,,2016-07-30 20:13:00,
2016-07-30 14:23:00,91.0,52.0,29.80,SSW,213,1.0,7.0,27,-99.99,,,-99.99,,2016-07-30 20:23:00,
2016-07-30 14:36:00,92.0,52.0,29.80,SW,229,5.0,9.0,26,-99.99,,,-99.99,,2016-07-30 20:36:00,
2016-07-30 14:44:00,93.0,51.0,29.79,SSW,206,1.0,6.0,24,-99.99,,,-99.99,,2016-07-30 20:44:00,
2016-07-30 14:54:00,93.0,52.0,29.79,South,174,3.0,4.0,25,-99.99,,,-99.99,,2016-07-30 20:54:00,